Regional Weather Roundup
Issued by NWS

Home | Current Version | Previous Version | Graphics & Text | Print | Product List | Glossary On
Versions: 1 2 3 4 5 6 7 8 9 10 11 12 13 14 15 16 17 18 19 20 21 22 23 24 25 26 27 28 29 30 31 32 33 34 35 36 37 38 39 40 41 42 43 44 45 46 47 48
000
ASUS43 KDMX 141107
RWRIA

WEATHER ROUNDUP FOR IOWA
NATIONAL WEATHER SERVICE DES MOINES IA
600 AM CDT SUN SEP 14 2014

NOTE: "FAIR" INDICATES FEW OR NO CLOUDS BELOW 12,000 FEET WITH NO
SIGNIFICANT WEATHER AND/OR OBSTRUCTIONS TO VISIBILITY.

* - THESE STATIONS ARE NOT NWS STATIONS...THUS NOT UNDER NWS
QUALITY CONTROL.  THEY ALSO DO NOT REPORT WEATHER SUCH
AS PRECIPITATION OR FOG.

IAZ001>003-012>014-020>022-031>034-043>046-141200-
   NORTHWEST IOWA

CITY           SKY/WX    TMP DP  RH WIND       PRES   REMARKS
CARROLL *      CLEAR     46  43  87 SW6       30.21S
CHEROKEE *     CLEAR     43  43 100 CALM      30.18S
DENISON *      CLEAR     45  43  93 CALM      30.19S
LE MARS *        N/A     43  43 100 S5        30.18S
ORANGE CITY *  CLEAR     45  41  87 S3        30.17S
SHELDON *      CLEAR     45  43  93 SW8       30.16R
SIOUX CITY     CLEAR     43  41  93 E5        30.20R
SPENCER        CLEAR     43  40  89 S7        30.17S
STORM LAKE *   CLEAR     43  43 100 S8        30.19S
$$

IAZ055>058-069>071-079>083-090>094-141200-
   SOUTHWEST IOWA

CITY           SKY/WX    TMP DP  RH WIND       PRES   REMARKS
ATLANTIC *     CLOUDY    50  46  87 S3        30.22S
AUDUBON *      CLOUDY    52  48  87 CALM      30.23R
CLARINDA *     CLOUDY    50  48  93 CALM      30.25S
COUNCIL BLFS * CLOUDY    48  48 100 SE6       30.20S
CRESTON *      CLOUDY    50  45  81 S6        30.24S
HARLAN  *      CLOUDY    50  48  93 S3        30.25S
LAMONI         CLOUDY    49  44  83 S5        30.25S
SHENANDOAH *     N/A     52  46  82 CALM      30.24S
$$

IAZ047>049-059>061-072>074-084-141200-
   CENTRAL IOWA

CITY           SKY/WX    TMP DP  RH WIND       PRES   REMARKS
AMES           CLOUDY    47  46  97 SE3       30.23S
ANKENY *       CLOUDY    50  46  87 CALM      30.24S
CHARITON *     CLOUDY    48  45  87 S7        30.25F
DES MOINES     CLOUDY    50  44  80 S7        30.24S
GRINNELL*      CLOUDY    46  43  87 S6        30.25F
KNOXVILLE *    CLOUDY    48  43  81 S7        30.24S
MARSHALLTOWN   CLOUDY    49  44  83 S7        30.23S
PELLA *        MOCLDY    48  45  87 S3        30.27S
PERRY *        CLOUDY    50  46  87 S6        30.22F
$$

IAZ004>006-015-016-023>025-035-036-141200-
   NORTH CENTRAL IOWA

CITY           SKY/WX    TMP DP  RH WIND       PRES   REMARKS
ALGONA *       MOCLDY    46  45  93 S10       30.19S
CLARION *        N/A     46  45  93 S7        30.21S
ESTHERVILLE    CLEAR     40  39  97 S7        30.16S
FORT DODGE *   CLEAR     46  43  87 S7        30.21S
MASON CITY     CLOUDY    49  44  83 S7        30.21F
FOREST CITY *  CLOUDY    50  43  76 S8        30.19S
IOWA FALLS *     N/A     46  43  87 S7        30.23S
$$

IAZ007>011-017>019-026>030-037>042-050>054-066-141200-
   NORTHEAST IOWA

CITY           SKY/WX    TMP DP  RH WIND       PRES   REMARKS
CEDAR RAPIDS   PTCLDY    41  39  93 S6        30.26F
CHARLES CITY * CLOUDY    48  43  81 S7        30.23S
CLINTON *      CLEAR     37  36  93 SE5       30.32S WCI  34
DECORAH *      CLOUDY    46  41  81 S6        30.22S
DUBUQUE        CLEAR     40  38  93 S6        30.27F
MONTICELLO *   CLEAR     39  39 100 CALM      30.27S
OELWEIN *      CLOUDY    45  43  93 S8        30.25S
WATERLOO       CLOUDY    49  43  80 S5        30.23S
$$

IAZ064-065-067-068-078-141200-
   EAST CENTRAL IOWA

CITY           SKY/WX    TMP DP  RH WIND       PRES   REMARKS
DAVENPORT      CLEAR     39  36  89 SE6       30.30S WCI  35
IOWA CITY      CLEAR     41  39  93 CALM      30.29S
MT. PLEASANT * CLEAR     39  37  93 CALM      30.29S
MUSCATINE *    CLEAR     39  37  93 CALM      30.30S
QUAD CITIES    CLEAR     38  36  92 E3        30.30F
$$

IAZ062-063-075>077-085>089-095>099-141200-
   SOUTHEAST IOWA

CITY           SKY/WX    TMP DP  RH WIND       PRES   REMARKS
BURLINGTON     LGT RAIN  43  42  97 CALM      30.29F
FAIRFIELD *    PTCLDY    41  37  87 SE3       30.28S
FORT MADISON * CLEAR     45  41  87 S3        30.30S
KEOKUK *       FOG       43  43 100 CALM      30.29S VSB 1/2
OSKALOOSA *    CLOUDY    45  43  93 S3        30.27S
CENTERVILLE *  CLOUDY    45  45 100 S3        30.28S
OTTUMWA        CLOUDY    46  42  86 S7        30.27S
WASHINGTON *   CLEAR     37  37 100 S6        30.28S WCI  33
$$

ABBREVIATIONS USED IN REMARKS
   TC - TEMPERATURES IN CELSIUS
  WCI - WIND CHILL INDEX
   HX - HEAT INDEX
  VSB - VISIBILITY
$$



USA.gov is the U.S. government's official web portal to all federal, state and local government web resources and services.